Regional Weather Roundup
Issued by NWS Boston, MA

Home | Current Version | Previous Version | Text Only | Print | Product List | Glossary On
Versions: 1 2 3 4 5 6 7 8 9 10 11 12 13 14 15 16 17 18 19 20 21 22 23 24 25 26 27
000
ASUS41 KBOX 241210
RWRBOX

REGIONAL WEATHER ROUNDUP
NATIONAL WEATHER SERVICE TAUNTON MA
800 AM EDT FRI OCT 24 2014

NOTE:  "FAIR" INDICATES FEW OR NO CLOUDS BELOW 12,000 FEET WITH NO
SIGNIFICANT WEATHER AND/OR OBSTRUCTIONS TO VISIBILITY.  THE FOLLOWING
OBSERVATION LOCATIONS DO NOT REPORT PRESENT WEATHER...PROVINCETOWN...
SMITHFIELD...BLOCK ISLAND...KEENE...AND OXFORD.

MAZALL-241300-
EASTERN MASSACHUSETTS

CITY           SKY/WX    TMP DP  RH WIND       PRES   REMARKS
BOSTON         CLOUDY    48  48 100 NW10      29.70R FOG
6HR MIN TEMP:  47; 6HR MAX TEMP:  48; 6HR PCP:  0.05;

BEVERLY        LGT RAIN  49  47  93 N9        29.68R FOG
LAWRENCE       LGT RAIN  49  48  97 NW6       29.72R FOG
BEDFORD        CLOUDY    49  47  93 NW9       29.70R
BLUE HILL        N/A     47  47 100 NW12G21   29.68R
NORWOOD        CLOUDY    50  48  93 NW9       29.69R FOG
MARSHFIELD     NOT AVBL
PLYMOUTH       CLOUDY    49  48  97 NW10      29.67R
TAUNTON        CLOUDY    50  48  93 NW6       29.68R
NEW BEDFORD    CLOUDY    50  48  93 NW8       29.67R
$$

MAZALL-241300-
CAPE COD AND THE ISLANDS

CITY           SKY/WX    TMP DP  RH WIND       PRES   REMARKS
FALMOUTH       CLOUDY    50  48  93 NW12G17   29.65R
HYANNIS        CLOUDY    52  49  89 N16G30    29.61R
CHATHAM        CLOUDY    49  49 100 N13G24    29.62R FOG
PROVINCETOWN   CLOUDY    50  -2  11 N22G29    29.65R
NANTUCKET      CLOUDY    52  49  89 NW24G33   29.61R
MARTHAS VNYRD  CLOUDY    51  48  89 N14       29.65R
$$

MAZALL-241300-
CENTRAL AND WESTERN MASSACHUSETTS

CITY           SKY/WX    TMP DP  RH WIND       PRES   REMARKS
WORCESTER      LGT RAIN  45  43  93 NW14      29.71R
6HR MIN TEMP:  45; 6HR MAX TEMP:  48; 6HR PCP:  0.05;

FITCHBURG      CLOUDY    50  44  80 NW7       29.72S
ORANGE         LGT RAIN  45  43  93 NW8       29.75S
SPRINGFIELD    LGT RAIN  46  45  94 N7        29.75R
WESTFIELD      LGT RAIN  47  43  86 N7        29.75S
NORTH ADAMS    CLOUDY    43  41  93 W13       29.80F
PITTSFIELD     CLOUDY    42  40  92 NW10      29.78S
$$

RIZALL-241300-
RHODE ISLAND

CITY           SKY/WX    TMP DP  RH WIND       PRES   REMARKS
PROVIDENCE     CLOUDY    51  47  86 NW12      29.70S
6HR MIN TEMP:  50; 6HR MAX TEMP:  51; 6HR PCP:  0.01;

NEWPORT        LGT RAIN  52  48  86 NW12G18   29.69R
BLOCK ISLAND   CLOUDY    52  45  76 NW10G16   29.71R
SMITHFIELD     CLOUDY    48  39  71 NW7       29.70R
WESTERLY       LGT RAIN  50  47  89 NW5       29.73R
$$

CTZALL-241300-
CONNECTICUT

CITY           SKY/WX    TMP DP  RH WIND       PRES   REMARKS
BRADLEY INTL   LGT RAIN  48  44  86 N8        29.75R
6HR MIN TEMP:  48; 6HR MAX TEMP:  51; 6HR PCP:  0.11;

HARTFORD       LGT RAIN  48  45  89 VRB5      29.76R
BRIDGEPORT     RAIN      49  45  86 NW10      29.78R
DANBURY        LGT RAIN  47  42  83 NW12      29.81R
GROTON         LGT RAIN  48  46  93 NW9       29.74R
NEW HAVEN      LGT RAIN  50  44  80 VRB6      29.77R
CHESTER        NOT AVBL
MERIDEN        RAIN      48  44  86 NW8       29.77R FOG
WILLIMANTIC    LGT RAIN  49  45  86 NW7       29.74R
OXFORD         LGT RAIN  46  39  76 NW5       29.78R FOG
$$

MEZ002-015-021-024-NHZ003-005-008-011-012-014-VTZ005-008-241300-
NORTHERN NEW ENGLAND

CITY           SKY/WX    TMP DP  RH WIND       PRES   REMARKS
PORTLAND ME    CLOUDY    49  45  86 N13       29.68S FOG
6HR MIN TEMP:  48; 6HR MAX TEMP:  50; 6HR PCP:  0.31;

BANGOR ME      LGT RAIN  45  43  93 N13       29.68S
CONCORD NH     CLOUDY    47  45  93 NW7       29.72R
MANCHESTER NH  CLOUDY    49  44  83 N7        29.70R
NASHUA NH      CLOUDY    48  46  93 NW9       29.72R
PORTSMOUTH NH  DRIZZLE   49  47  92 NW12      29.68R FOG
JAFFREY NH     CLOUDY    45  42  89 VRB5      29.73S
KEENE NH       CLOUDY    45  36  70 N6        29.76S
BURLINGTON VT  CLOUDY    42  40  92 N8        29.87R FOG
MT. WASHINGTON NOT AVBL
$$

NYZ052-076-241300-
EASTERN NEW YORK

CITY           SKY/WX    TMP DP  RH WIND       PRES   REMARKS
ALBANY         LGT RAIN  46  43  89 N6        29.85R FOG
6HR MIN TEMP:  45; 6HR MAX TEMP:  47; 6HR PCP:  0.14;

NEW YORK CITY  MOCLDY    52  44  74 NW10      29.81R
6HR MIN TEMP:  51; 6HR MAX TEMP:  53; 6HR PCP: TRACE;

$$

ANZALL-241300-
MARINE OBSERVATIONS

STATION/POSITION TIME  TEMP    WIND        PRES    VSBY  WAVE
                       AIR SEA DIR/SP/G                  HT/PER
                 (UTC) (F)     (DEG/KT/KT) (MB)    (MI)  (FT/S)
BOSTON BUOY      NOT AVBL
BUZZARDS BAY     NOT AVBL
NANTUCKET SOUND  NOT AVBL
MASS BAY-STELLWA NOT AVBL
ISLE OF SHOALS   NOT AVBL
S OF BLOCK IS    NOT AVBL
$$

......................KEY.........................
  SKY/WX - SKY CONDITION/PRESENT WEATHER
  TMP    - TEMPERATURE IN FAHRENHEIT
  DWPT   - DEWPOINT IN FAHRENHEIT
  RH     - RELATIVE HUMIDITY IN PERCENT
  WIND   - DIRECTION AND SPEED IN MPH
  PRES   - MEAN SEA LEVEL PRESSURE IN INCHES OF HG
  WCI    - WIND CHILL INDEX
  VSB    - VISIBILITY IN MILES
  HX     - HEAT INDEX
  TC     - TEMPERATURE IN CELSIUS
  VRB    - VARIABLE WIND DIRECTION
  N/A    - NOT AVAILABLE



USA.gov is the U.S. government's official web portal to all federal, state and local government web resources and services.